Regional Weather Roundup
Issued by NWS

Home | Current Version | Previous Version | Graphics & Text | Print | Product List | Glossary On
Versions: 1 2 3 4 5 6 7 8 9 10 11 12 13 14 15 16 17 18 19 20 21 22 23 24 25 26 27 28 29 30 31 32 33 34 35 36 37 38 39 40 41 42 43 44 45 46 47 48 49 50
000
ASUS43 KOAX 102002
RWRNE

WEATHER ROUNDUP FOR NEBRASKA
NATIONAL WEATHER SERVICE OMAHA NE
200 PM CST SUN DEC 10 2017

NOTES: SATELLITE DATA IS BEING USED TO AUGMENT CLOUD COVER ABOVE
       12000 FEET.
       "FAIR" INDICATES FEW OR NO CLOUDS BELOW 12,000 FEET WITH NO
       SIGNIFICANT WEATHER AND/OR OBSTRUCTIONS TO VISIBILITY.


NEZ001>004-019>022-054>056-102100-
NEBRASKA PANHANDLE

CITY           SKY/WX    TMP DP  RH WIND       PRES   REMARKS
SCOTTSBLUFF    SUNNY     61   4  10 W14       30.30F
ALLIANCE       SUNNY     60   6  11 W21       30.24F
CHADRON        SUNNY     60   6  11 W22G29    30.24F
GORDON         FAIR      54  17  23 W17G23    30.20F
KIMBALL        SUNNY     59   3  10 NW17G24   30.33F
SIDNEY         SUNNY     60   0   9 W18       30.31F
$$

NEZ057>060-069>072-079>082-102100-
SOUTHWEST NEBRASKA

CITY           SKY/WX    TMP DP  RH WIND       PRES   REMARKS
NORTH PLATTE   SUNNY     63  12  13 W18       30.22F
IMPERIAL       SUNNY     63   5  10 NW16      30.28F
LEXINGTON      SUNNY     65  12  12 W18       30.19F
MCCOOK         SUNNY     64  12  13 W16       30.23F
OGALLALA       SUNNY     62   6  11 NW22G30   30.26F
$$

NEZ005>010-023>029-035>040-094-102100-
NORTH CENTRAL NEBRASKA

CITY           SKY/WX    TMP DP  RH WIND       PRES   REMARKS
VALENTINE      SUNNY     61  14  16 NW14G29   30.14F
AINSWORTH      SUNNY     59  15  18 NW21      30.14F
BROKEN BOW     SUNNY     62  13  14 NW17G25   30.15F
O`NEILL        SUNNY     56  20  25 NW16G22   30.11F
ORD            SUNNY     63  10  12 NW20      30.12F
THEDFORD       SUNNY     63  15  15 NW18G25   30.19F
$$

NEZ041-046>049-061>064-073>077-083>087-102100-
SOUTH CENTRAL NEBRASKA

CITY           SKY/WX    TMP DP  RH WIND       PRES   REMARKS
GRAND ISLAND   SUNNY     63  13  14 NW20      30.14F
AURORA         SUNNY     61  15  16 NW17G23   30.13F
HASTINGS       SUNNY     62  10  13 NW16G23   30.16F
HEBRON         SUNNY     62  16  16 NW15G22   30.15F
HOLDREGE       SUNNY     63  20  18 NW15G21   30.19F
KEARNEY        SUNNY     65  11  12 NW15      30.16
$$

NEZ011>018-030>034-042>045-102100-
NORTHEAST NEBRASKA

CITY           SKY/WX    TMP DP  RH WIND       PRES   REMARKS
NORFOLK        SUNNY     54  20  26 NW14      30.07F
ALBION         SUNNY     58  18  20 NW20      30.11S
BLAIR          SUNNY     52  28  39 NW14      30.08S
COLUMBUS       CLOUDY    55  21  26 NW18      30.11F
FREMONT        SUNNY     55  23  29 NW18      30.10S
TEKAMAH        SUNNY     52  26  36 NW20G25   30.08F
WAYNE          SUNNY     51  19  28 NW16G23   30.08F
$$

NEZ050>053-065>068-078-088>093-102100-
SOUTHEAST NEBRASKA

CITY           SKY/WX    TMP DP  RH WIND       PRES   REMARKS
LINCOLN        CLOUDY    56  20  24 NW14      30.13S
OMAHA EPPLEY   MOSUNNY   53  26  35 NW17G23   30.09S
BEATRICE       SUNNY     59  21  23 NW17      30.13S
FALLS CITY     SUNNY     55  23  28 W15G22    30.10F
NEBRASKA CITY  SUNNY     53  27  36 NW14G20   30.10F
PLATTSMOUTH    SUNNY     52  27  37 NW15      30.09S
$$

NEZ044-045-051>053-067-102100-
OMAHA AREA

CITY           SKY/WX    TMP DP  RH WIND       PRES   REMARKS
OMAHA EPPLEY   MOSUNNY   53  26  35 NW17G23   30.09S
BLAIR          SUNNY     52  28  39 NW14      30.08S
FREMONT        SUNNY     55  23  29 NW18      30.10S
MILLARD        SUNNY     54  27  35 NW14G20   30.10S
OFFUTT AFB     SUNNY     53  26  35 NW14      30.09S
PLATTSMOUTH    SUNNY     52  27  37 NW15      30.09S
WAHOO          FAIR      56  21  26 NW16      30.09S
$$




USA.gov is the U.S. government's official web portal to all federal, state and local government web resources and services.